| time (UTC) | temp F | wind direction | speed knots | gust knots | rain 1hr in | rain 24hr in | rain mn in | humidity % | barometer mb |
| 20260509123052 | 81 | 223 | 0.0 | 0.9 | 0.00 | 0.00 | 0.00 | 75 | 1009.0 |
| 20260509121552 | 81 | 223 | 0.0 | 0.9 | 0.00 | 0.00 | 0.00 | 74 | 1009.0 |
| 20260509120049 | 82 | 222 | 0.0 | 0.0 | 0.00 | 0.00 | 0.00 | 73 | 1008.8 |
| 20260509114548 | 82 | 222 | 0.0 | 0.9 | 0.00 | 0.00 | 0.00 | 73 | 1008.6 |
| 20260509113052 | 82 | 222 | 0.0 | 0.0 | 0.00 | 0.00 | 0.00 | 72 | 1008.5 |
| 20260509111548 | 82 | 222 | 1.7 | 3.5 | 0.00 | 0.00 | 0.00 | 71 | 1008.7 |
| 20260509110047 | 83 | 188 | 0.9 | 2.6 | 0.00 | 0.00 | 0.00 | 72 | 1008.6 |
| 20260509104547 | 83 | 115 | 0.9 | 2.6 | 0.00 | 0.00 | 0.00 | 73 | 1008.1 |
| 20260509103050 | 83 | 117 | 0.0 | 1.7 | 0.00 | 0.00 | 0.00 | 72 | 1007.6 |
| 20260509101551 | 83 | 117 | 0.9 | 2.6 | 0.00 | 0.00 | 0.00 | 71 | 1007.3 |
| 20260509100045 | 85 | 135 | 0.0 | 1.7 | 0.00 | 0.00 | 0.00 | 67 | 1007.6 |
| 20260509094545 | 85 | 134 | 0.0 | 1.7 | 0.00 | 0.00 | 0.00 | 66 | 1007.8 |
| 20260509093044 | 85 | 204 | 1.7 | 5.2 | 0.00 | 0.00 | 0.00 | 66 | 1007.3 |
| 20260509091545 | 85 | 198 | 0.0 | 6.1 | 0.00 | 0.00 | 0.00 | 66 | 1007.5 |
| 20260509090043 | 87 | 155 | 0.9 | 6.1 | 0.00 | 0.00 | 0.00 | 63 | 1007.3 |
| 20260509084544 | 87 | 30 | 0.0 | 1.7 | 0.00 | 0.00 | 0.00 | 65 | 1006.8 |
| 20260509083047 | 87 | 24 | 0.0 | 3.5 | 0.00 | 0.00 | 0.00 | 65 | 1006.5 |
| 20260509081548 | 88 | 63 | 0.0 | 4.3 | 0.00 | 0.00 | 0.00 | 62 | 1006.5 |
| 20260509080040 | 89 | 19 | 1.7 | 7.0 | 0.00 | 0.00 | 0.00 | 61 | 1006.1 |
| 20260509074552 | 89 | 59 | 2.6 | 7.8 | 0.00 | 0.00 | 0.00 | 60 | 1005.7 |
| 20260509073040 | 90 | 101 | 0.9 | 9.6 | 0.00 | 0.00 | 0.00 | 60 | 1005.3 |
| 20260509071539 | 91 | 107 | 1.7 | 7.8 | 0.00 | 0.00 | 0.00 | 60 | 1005.5 |
| 20260509070039 | 90 | 97 | 0.9 | 4.3 | 0.00 | 0.00 | 0.00 | 60 | 1005.5 |
| 20260509064550 | 91 | 61 | 1.7 | 7.8 | 0.00 | 0.00 | 0.00 | 60 | 1005.6 |
| 20260509063044 | 92 | 117 | 5.2 | 10.4 | 0.00 | 0.00 | 0.00 | 58 | 1005.5 |
| 20260509061532 | 92 | 121 | 1.7 | 6.1 | 0.00 | 0.00 | 0.00 | 59 | 1005.7 |
| 20260509060032 | 91 | 117 | 2.6 | 8.7 | 0.00 | 0.00 | 0.00 | 60 | 1005.9 |
| 20260509054535 | 93 | 92 | 0.9 | 3.5 | 0.00 | 0.00 | 0.00 | 52 | 1006.0 |
| 20260509053031 | 93 | 53 | 0.9 | 5.2 | 0.00 | 0.00 | 0.00 | 52 | 1005.9 |
| 20260509051534 | 93 | 355 | 0.9 | 7.0 | 0.00 | 0.00 | 0.00 | 51 | 1006.2 |
| 20260509050028 | 94 | 294 | 0.9 | 4.3 | 0.00 | 0.00 | 0.00 | 51 | 1006.6 |
| 20260509044521 | 94 | 350 | 0.9 | 3.5 | 0.00 | 0.00 | 0.00 | 52 | 1006.8 |
| 20260509043019 | 93 | 269 | 0.0 | 5.2 | 0.00 | 0.00 | 0.00 | 51 | 1007.1 |
| 20260509041516 | 92 | 57 | 1.7 | 5.2 | 0.00 | 0.00 | 0.00 | 55 | 1007.7 |
| 20260509040015 | 91 | 63 | 0.9 | 4.3 | 0.00 | 0.00 | 0.00 | 58 | 1008.0 |
| 20260509034535 | 91 | 274 | 0.0 | 5.2 | 0.00 | 0.00 | 0.00 | 57 | 1008.1 |
| 20260509033014 | 91 | 89 | 0.9 | 5.2 | 0.00 | 0.00 | 0.00 | 56 | 1008.2 |
| 20260509031514 | 92 | 101 | 1.7 | 3.5 | 0.00 | 0.00 | 0.00 | 57 | 1008.4 |
| 20260509030011 | 91 | 5 | 0.9 | 7.8 | 0.00 | 0.00 | 0.00 | 55 | 1008.5 |
| 20260509024510 | 91 | 331 | 1.7 | 5.2 | 0.00 | 0.00 | 0.00 | 53 | 1008.7 |
| 20260509023008 | 91 | 54 | 0.9 | 5.2 | 0.00 | 0.00 | 0.00 | 54 | 1008.9 |
| 20260509021508 | 90 | 45 | 0.0 | 7.0 | 0.00 | 0.00 | 0.00 | 57 | 1008.9 |
| 20260509020007 | 91 | 355 | 0.9 | 4.3 | 0.00 | 0.00 | 0.00 | 58 | 1009.1 |
| 20260509014506 | 90 | 360 | 0.0 | 2.6 | 0.00 | 0.00 | 0.00 | 57 | 1009.2 |
| 20260509013005 | 89 | 78 | 0.0 | 1.7 | 0.00 | 0.00 | 0.00 | 58 | 1009.4 |
| 20260509011505 | 90 | 19 | 0.9 | 3.5 | 0.00 | 0.00 | 0.00 | 59 | 1009.5 |
| 20260509010104 | 89 | 49 | 0.0 | 1.7 | 0.00 | 0.00 | 0.00 | 60 | 1009.7 |
| 20260509004620 | 87 | 29 | 0.0 | 2.6 | 0.00 | 0.00 | 0.00 | 65 | 1010.0 |
| 20260509003054 | 87 | 63 | 0.0 | 2.6 | 0.00 | 0.00 | 0.00 | 66 | 1010.2 |
| 20260509001553 | 85 | 49 | 0.9 | 2.6 | 0.00 | 0.00 | 0.00 | 69 | 1010.2 |
| 20260509000049 | 85 | 77 | 0.0 | 2.6 | 0.00 | 0.00 | 0.00 | 69 | 1010.3 |
| 20260508234547 | 85 | 113 | 0.0 | 1.7 | 0.00 | 0.00 | 0.00 | 70 | 1010.2 |
| 20260508233045 | 84 | 121 | 0.0 | 3.5 | 0.00 | 0.00 | 0.00 | 70 | 1010.0 |
| 20260508231542 | 83 | 68 | 0.0 | 1.7 | 0.00 | 0.00 | 0.00 | 73 | 1009.8 |
| 20260508230039 | 82 | 65 | 0.9 | 2.6 | 0.00 | 0.02 | 0.00 | 74 | 1009.7 |
| 20260508224547 | 81 | 5 | 0.0 | 0.9 | 0.00 | 0.02 | 0.00 | 75 | 1009.7 |
| 20260508223044 | 80 | 5 | 0.0 | 0.0 | 0.00 | 0.02 | 0.00 | 77 | 1009.6 |
| 20260508221530 | 79 | 5 | 0.0 | 0.0 | 0.00 | 0.02 | 0.00 | 78 | 1009.5 |
| 20260508220031 | 79 | 5 | 0.0 | 0.0 | 0.00 | 0.06 | 0.00 | 78 | 1008.9 |
| 20260508214549 | 78 | 5 | 0.0 | 0.0 | 0.00 | 0.06 | 0.00 | 78 | 1008.8 |
| 20260508213027 | 78 | 5 | 0.0 | 0.0 | 0.00 | 0.06 | 0.00 | 78 | 1008.8 |
| 20260508211527 | 78 | 5 | 0.0 | 0.0 | 0.00 | 0.06 | 0.00 | 78 | 1008.7 |
| 20260508210026 | 78 | 5 | 0.0 | 0.0 | 0.00 | 0.12 | 0.00 | 78 | 1008.4 |
| 20260508204525 | 78 | 5 | 0.0 | 0.0 | 0.00 | 0.12 | 0.00 | 78 | 1008.3 |
| 20260508203024 | 78 | 5 | 0.0 | 0.0 | 0.00 | 0.12 | 0.00 | 78 | 1008.0 |
| 20260508201522 | 78 | 5 | 0.0 | 1.7 | 0.00 | 0.12 | 0.00 | 78 | 1007.9 |
| 20260508200022 | 78 | 34 | 0.0 | 0.9 | 0.00 | 0.22 | 0.00 | 78 | 1008.1 |
| 20260508194519 | 78 | 37 | 0.0 | 0.0 | 0.00 | 0.22 | 0.00 | 78 | 1008.3 |
| 20260508193018 | 79 | 37 | 0.0 | 2.6 | 0.00 | 0.22 | 0.00 | 77 | 1008.6 |
| 20260508191518 | 79 | 34 | 0.0 | 0.0 | 0.00 | 0.22 | 0.00 | 77 | 1008.6 |
| 20260508190035 | 79 | 34 | 0.0 | 0.0 | 0.00 | 0.30 | 0.00 | 77 | 1008.2 |
| 20260508184527 | 78 | 34 | 0.0 | 0.0 | 0.00 | 0.30 | 0.00 | 77 | 1008.4 |
| 20260508183027 | 79 | 34 | 0.0 | 0.0 | 0.00 | 0.30 | 0.00 | 77 | 1008.3 |
| 20260508181512 | 79 | 34 | 0.0 | 0.0 | 0.00 | 0.30 | 0.00 | 77 | 1008.5 |
| 20260508180012 | 79 | 34 | 0.0 | 0.0 | 0.00 | 0.31 | 0.00 | 77 | 1008.6 |
| 20260508174510 | 79 | 34 | 0.0 | 0.9 | 0.00 | 0.31 | 0.00 | 77 | 1008.7 |
| 20260508173012 | 79 | 34 | 0.0 | 0.0 | 0.00 | 0.31 | 0.00 | 77 | 1008.8 |
| 20260508171509 | 79 | 34 | 0.0 | 0.9 | 0.00 | 0.31 | 0.00 | 77 | 1009.0 |
| 20260508170010 | 79 | 33 | 0.0 | 0.0 | 0.00 | 0.32 | 0.00 | 77 | 1009.1 |
| 20260508164518 | 79 | 33 | 0.0 | 0.0 | 0.00 | 0.32 | 0.00 | 77 | 1009.2 |
| 20260508163012 | 79 | 33 | 0.0 | 0.0 | 0.00 | 0.32 | 0.00 | 76 | 1009.4 |
| 20260508161506 | 79 | 33 | 0.0 | 0.0 | 0.00 | 0.32 | 0.00 | 76 | 1009.6 |
| 20260508160100 | 79 | 34 | 0.0 | 0.0 | 0.00 | 0.33 | 0.32 | 75 | 1009.6 |
| 20260508154601 | 79 | 33 | 0.0 | 2.6 | 0.00 | 0.33 | 0.32 | 75 | 1009.6 |
| 20260508153100 | 80 | 41 | 0.9 | 2.6 | 0.00 | 0.33 | 0.32 | 74 | 1009.8 |
| 20260508151602 | 80 | 42 | 0.9 | 3.5 | 0.00 | 0.33 | 0.32 | 74 | 1010.0 |
| 20260508150059 | 79 | 355 | 0.0 | 0.9 | 0.00 | 0.34 | 0.32 | 75 | 1009.9 |
| 20260508144607 | 79 | 355 | 0.0 | 0.9 | 0.00 | 0.34 | 0.32 | 75 | 1009.8 |
| 20260508143101 | 79 | 355 | 0.0 | 1.7 | 0.00 | 0.34 | 0.32 | 76 | 1009.8 |
| 20260508141607 | 79 | 355 | 0.0 | 0.0 | 0.00 | 0.34 | 0.32 | 76 | 1010.1 |
| 20260508140057 | 79 | 355 | 0.0 | 0.0 | 0.00 | 0.34 | 0.32 | 76 | 1010.2 |
| 20260508134557 | 80 | 355 | 0.0 | 0.0 | 0.00 | 0.34 | 0.32 | 76 | 1010.5 |
| 20260508133055 | 80 | 355 | 0.0 | 0.0 | 0.00 | 0.34 | 0.32 | 75 | 1010.0 |
| 20260508131606 | 80 | 355 | 0.0 | 0.9 | 0.00 | 0.34 | 0.32 | 74 | 1009.9 |
| 20260508130054 | 80 | 355 | 0.0 | 1.7 | 0.00 | 0.35 | 0.32 | 74 | 1009.9 |
| 20260508124553 | 79 | 355 | 0.0 | 0.9 | 0.00 | 0.35 | 0.32 | 75 | 1010.1 |